Regional Weather Roundup
Issued by NWS

Home | Current Version | Previous Version | Graphics & Text | Print | Product List | Glossary On
Versions: 1 2 3 4 5 6 7 8 9 10 11 12 13 14 15 16 17 18 19 20 21 22 23 24 25 26 27 28 29 30 31 32 33 34 35 36 37 38 39 40 41 42 43 44 45 46 47 48 49 50
000
ASUS45 KABQ 240410
RWRNM
NEW MEXICO REGIONAL WEATHER ROUNDUP
NATIONAL WEATHER SERVICE ALBUQUERQUE NM
900 PM MST THU FEB 23 2017

NOTE: "FAIR" MEANS FEW OR NO CLOUDS BELOW 12,000 FEET AGL WITH NO
       SIGNIFICANT WEATHER OR OBSTRUCTIONS TO VISION.

      THIS PRODUCT IS RELEASED AS TWO VERSIONS.  ONE VERSION NEAR
      THE TOP OF THE HOUR CONTAINING PRELIMINARY DATA FROM ALBUQUERQUE
      AND OTHER STATIONS.  A FINAL VERSION WITH ADDITIONAL DATA IS
      ISSUED ABOUT 10 MINUTES AFTER THE HOUR.

NMZ501-503-504-510>518-240500-
NORTHWEST PLATEAU/NORTHCENTRAL MOUNTAINS

CITY           SKY/WX    TMP DP  RH WIND       PRES   REMARKS
FARMINGTON     CLOUDY    30   3  31 SW5       29.79R WCI  25
LOS ALAMOS     FAIR      32   6  33 CALM      29.77R
SANTA FE       FAIR      34   8  33 NW12      29.75R WCI  25
TAOS           MOCLDY    25   0  33 NW7       29.77R WCI  17
ANGEL FIRE     CLOUDY    24   4  41 W20G28    29.74R WCI  10

$$
NMZ402-403-502-505>509-240500-
WESTCENTRAL MOUNTAINS/SOUTHWEST MOUNTAINS

CITY           SKY/WX    TMP DP  RH WIND       PRES   REMARKS
GALLUP         FAIR      32  11  41 W12       29.82R WCI  23
GRANTS         CLOUDY    26  13  58 NW14      29.82S WCI  14
SILVER CITY    FAIR      38  12  35 NW7       29.90R WCI  32

$$
NMZ407-409-411-412-240500-
SOUTHERN DESERTS

CITY           SKY/WX    TMP DP  RH WIND       PRES   REMARKS
DEMING         FAIR      50  10  20 W16G25    29.86R
LAS CRUCES     FAIR      51   6  16 W7        29.86R
HOLLOMAN AFB   FAIR      53   8  16 W15       29.84R
ALAMOGORDO     FAIR      54   3  13 N3        29.83R
T OR C         FAIR      50   6  16 SW14      29.81R

$$
NMZ519>523-240500-
CENTRAL VALLEYS/CENTRAL HIGHLANDS

CITY           SKY/WX    TMP DP  RH WIND       PRES   REMARKS
ALBUQUERQUE    FAIR      41   8  25 NW14      29.79R
DOUBLE EAGLE   CLEAR     36  10  35 NW12      29.79R WCI  27
MORIARTY ARPT  FAIR      36   8  31 NW15      29.78R WCI  27
CLINES CORNERS FAIR      30   7  37 NW17      29.76R WCI  18
BELEN          FAIR      38  10  32 NW6       29.80R WCI  33
SOCORRO        FAIR      47  -3  12 W9        29.78R

$$
NMZ524>526-539-540-240500-
SOUTHCENTRAL MOUNTAINS

CITY           SKY/WX    TMP DP  RH WIND       PRES   REMARKS
RUIDOSO        FAIR      41   1  19 SW23G31   29.80S

$$
NMZ527>531-240500-
NORTHEAST HIGHLANDS/NORTHEAST PLAINS

CITY           SKY/WX    TMP DP  RH WIND       PRES   REMARKS
LAS VEGAS      FAIR      34   6  31 W14G24    29.70R WCI  25
RATON          NOT AVBL
CLAYTON        FAIR      38  13  35 NW10      29.67R WCI  31

$$
NMZ532>537-240500-
EASTCENTRAL PLAINS

CITY           SKY/WX    TMP DP  RH WIND       PRES   REMARKS
TUCUMCARI      FAIR      47  11  23 W13       29.64R
CANNON AFB     FAIR      51   9  18 W13       29.68R
CLOVIS AIRPORT FAIR      48  12  23 W13       29.68R

$$
NMZ028-029-538-240500-
SOUTHEAST PLAINS

CITY           SKY/WX    TMP DP  RH WIND       PRES   REMARKS
ROSWELL        FAIR      58  12  16 SW14        N/A
ARTESIA        FAIR      55  23  28 SW13      29.72R
CARLSBAD       FAIR      58  21  24 SW13      29.70R
HOBBS          FAIR      57  19  23 SW12      29.72R


$$



USA.gov is the U.S. government's official web portal to all federal, state and local government web resources and services.